Date String (YYYY-MM-DD hh:mm:ss) UTC,Instrument flags,Ambient pressure (hPa),Sample flow (lpm),Bypass flow (lpm),Sample temperature (°C),Ambient temperature (°C),ASC tube jacket temperature (°C),LED temperature (°C),Box temperature (°C),Sample RH (%),Span deviation,Mass concentration (μg/m³),Mass concentration (μg/m³),Mass concentration (μg/m³)
DateTimeUTC,F1_M11,P_M11,Q1_M11,Q2_M11,T1_M11,T2_M11,T3_M11,T4_M11,T5_M11,U1_M11,ZSPAN_M11,X0_M11,X2_M11,X1_M11
2023-01-05 09:00:00,,0826.1,5.00,0.00,22.6,22.9,00.0,31.3,24.6,07.5,0000.0,0008.57,0005.71,0005.46
2023-01-05 09:01:00,,0826.1,4.99,0.00,22.7,23.0,00.0,31.3,24.7,07.5,0000.0,0008.40,0005.63,0005.42
2023-01-05 09:02:00,,0826.0,4.99,0.00,22.7,22.5,00.0,31.4,24.7,07.5,0000.0,0008.32,0005.58,0005.39
2023-01-05 09:03:00,,0826.0,5.00,0.00,22.7,22.2,00.0,31.4,24.6,07.5,0000.0,0008.36,0005.61,0005.40
2023-01-05 09:04:00,,0826.0,5.00,0.00,22.7,21.9,00.0,31.4,24.5,07.5,0000.0,0008.51,0005.68,0005.43
2023-01-05 09:05:00,,0826.0,5.00,0.00,22.7,21.6,00.0,31.4,24.4,07.5,0000.0,0009.31,0005.77,0005.51
2023-01-05 09:06:00,,0825.9,5.01,0.00,22.7,21.5,00.0,31.4,24.4,07.5,0000.0,0009.44,0005.83,0005.56
2023-01-05 09:07:00,,0825.9,5.00,0.00,22.6,21.4,00.0,31.4,24.4,07.6,0000.0,0009.50,0005.85,0005.57
2023-01-05 09:08:00,,0826.0,5.01,0.00,22.6,21.3,00.0,31.4,24.3,07.6,0000.0,0009.52,0005.82,0005.54
2023-01-05 09:09:00,,0826.0,5.01,0.00,22.6,21.2,00.0,31.4,24.3,07.6,0000.0,0009.91,0005.81,0005.51
2023-01-05 09:10:00,,0826.0,5.02,0.00,22.6,21.1,00.0,31.4,24.3,07.6,0000.0,0009.95,0005.83,0005.51
2023-01-05 09:11:00,,0826.0,4.98,0.00,22.6,21.1,00.0,31.4,24.2,07.6,0000.0,0010.05,0005.84,0005.48
2023-01-05 09:12:00,,0826.0,4.98,0.00,22.5,21.1,00.0,31.4,24.2,07.6,0000.0,0010.23,0005.84,0005.45
2023-01-05 09:13:00,,0826.1,4.98,0.00,22.5,21.0,00.0,31.4,24.2,07.6,0000.0,0010.58,0005.89,0005.47
2023-01-05 09:14:00,,0826.2,4.98,0.00,22.5,20.9,00.0,31.4,24.1,07.7,0000.0,0010.93,0005.90,0005.48
2023-01-05 09:15:00,,0826.2,5.00,0.00,22.4,20.8,00.0,31.4,24.1,07.7,0000.0,0011.04,0005.90,0005.48
2023-01-05 09:16:00,,0826.2,5.01,0.00,22.5,21.3,00.0,31.3,24.2,07.7,0000.0,0010.60,0005.88,0005.46
2023-01-05 09:17:00,,0826.2,5.00,0.00,22.6,22.3,00.0,31.3,24.4,07.7,0000.0,0010.69,0005.95,0005.51
2023-01-05 09:18:00,,0826.2,5.00,0.00,22.7,23.0,00.0,31.3,24.7,07.6,0000.0,0010.82,0006.04,0005.59
2023-01-05 09:19:00,,0826.1,4.99,0.00,22.7,22.6,00.0,31.4,24.7,07.6,0000.0,0011.35,0006.19,0005.70
2023-01-05 09:20:00,,0826.0,4.99,0.00,22.7,22.2,00.0,31.4,24.6,07.6,0001.1,0011.57,0006.25,0005.73
2023-01-05 09:21:00,,0826.0,5.00,0.00,22.7,21.8,00.0,31.4,24.4,07.6,0000.0,0011.69,0006.27,0005.75
2023-01-05 09:22:00,,0826.0,5.00,0.00,22.6,21.5,00.0,31.4,24.3,07.6,0000.1,0011.69,0006.28,0005.79
2023-01-05 09:23:00,,0826.0,5.00,0.00,22.6,21.3,00.0,31.4,24.3,07.7,0000.5,0012.08,0006.36,0005.85
2023-01-05 09:24:00,,0826.1,5.00,0.00,22.6,21.1,00.0,31.4,24.2,07.7,0002.0,0012.65,0006.47,0005.92
2023-01-05 09:25:00,,0826.0,4.99,0.00,22.5,20.9,00.0,31.4,24.1,07.7,0001.9,0013.84,0006.75,0006.03
2023-01-05 09:26:00,,0826.0,5.00,0.00,22.5,20.8,00.0,31.4,24.1,07.8,0001.3,0016.71,0007.10,0006.16
2023-01-05 09:27:00,,0826.0,5.00,0.00,22.5,20.8,00.0,31.4,24.1,07.7,0000.5,0017.63,0007.22,0006.20
2023-01-05 09:28:00,,0826.0,5.00,0.00,22.4,20.8,00.0,31.3,24.1,07.7,0000.8,0017.77,0007.20,0006.13
2023-01-05 09:29:00,,0826.0,4.99,0.00,22.4,20.8,00.0,31.3,24.1,07.6,0001.4,0018.36,0007.17,0006.04
2023-01-05 09:30:00,,0825.9,5.01,0.00,22.4,21.0,00.0,31.3,24.1,07.6,0001.6,0018.06,0007.10,0005.95
2023-01-05 09:31:00,,0825.9,5.00,0.00,22.5,22.0,00.0,31.3,24.4,07.6,0001.6,0017.77,0007.09,0005.92
2023-01-05 09:32:00,,0825.9,4.99,0.00,22.6,22.9,00.0,31.3,24.6,07.5,0002.1,0017.79,0007.07,0005.88
2023-01-05 09:33:00,,0825.9,4.99,0.00,22.7,23.0,00.0,31.3,24.7,07.5,0002.4,0017.84,0007.08,0005.84
2023-01-05 09:34:00,,0825.8,4.99,0.00,22.7,22.5,00.0,31.4,24.6,07.5,0002.0,0017.63,0007.07,0005.77
2023-01-05 09:35:00,,0825.8,5.00,0.00,22.7,22.0,00.0,31.4,24.5,07.5,0000.7,0017.18,0007.03,0005.69
2023-01-05 09:36:00,,0825.9,5.00,0.00,22.7,21.7,00.0,31.4,24.4,07.5,0000.0,0016.15,0006.86,0005.60
2023-01-05 09:37:00,,0826.0,5.01,0.00,22.6,21.5,00.0,31.4,24.3,07.5,0000.1,0014.27,0006.61,0005.49
2023-01-05 09:38:00,,0825.9,5.00,0.00,22.6,21.4,00.0,31.4,24.3,07.5,0000.6,0015.35,0006.49,0005.42
2023-01-05 09:39:00,,0825.9,5.01,0.00,22.6,21.3,00.0,31.4,24.3,07.5,0000.5,0015.50,0006.40,0005.39
2023-01-05 09:40:00,,0825.9,5.00,0.00,22.6,21.2,00.0,31.4,24.3,07.5,0000.0,0015.15,0006.35,0005.37
2023-01-05 09:41:00,,0825.9,5.00,0.00,22.6,21.1,00.0,31.4,24.2,07.6,0000.5,0015.04,0006.36,0005.40
2023-01-05 09:42:00,,0825.9,4.99,0.00,22.5,21.0,00.0,31.4,24.2,07.6,0000.6,0015.02,0006.40,0005.45
2023-01-05 09:43:00,,0826.0,5.00,0.00,22.5,21.0,00.0,31.4,24.2,07.6,0000.5,0015.31,0006.49,0005.52
2023-01-05 09:44:00,,0826.0,5.00,0.00,22.5,20.9,00.0,31.4,24.1,07.6,0000.2,0015.58,0006.57,0005.57
2023-01-05 09:45:00,,0826.0,4.98,0.00,22.4,20.9,00.0,31.3,24.1,07.6,0000.0,0015.38,0006.56,0005.63
2023-01-05 09:46:00,,0826.0,4.99,0.00,22.4,20.8,00.0,31.3,24.1,07.6,0000.5,0015.18,0006.56,0005.69
2023-01-05 09:47:00,,0826.0,5.01,0.00,22.5,21.5,00.0,31.3,24.2,07.6,0001.5,0014.79,0006.49,0005.70
2023-01-05 09:48:00,,0826.0,5.00,0.00,22.6,22.4,00.0,31.2,24.5,07.6,0001.0,0013.95,0006.45,0005.71
2023-01-05 09:49:00,,0826.0,5.00,0.00,22.7,23.0,00.0,31.3,24.7,07.6,0000.5,0011.69,0006.50,0005.79
2023-01-05 09:50:00,,0826.0,4.99,0.00,22.7,22.7,00.0,31.3,24.7,07.6,0000.2,0011.41,0006.62,0005.90
2023-01-05 09:51:00,,0826.0,5.00,0.00,22.7,22.3,00.0,31.4,24.6,07.6,0000.6,0011.23,0006.74,0006.03
2023-01-05 09:52:00,,0826.0,5.00,0.00,22.7,22.0,00.0,31.4,24.5,07.5,0000.3,0011.47,0006.81,0006.11
2023-01-05 09:53:00,,0825.9,5.00,0.00,22.7,21.7,00.0,31.4,24.4,07.6,-000.2,0011.50,0006.85,0006.18
2023-01-05 09:54:00,,0825.8,5.00,0.00,22.7,21.5,00.0,31.4,24.4,07.7,-000.8,0011.22,0006.86,0006.25
2023-01-05 09:55:00,,0825.9,5.00,0.00,22.6,21.3,00.0,31.4,24.3,07.9,-000.7,0011.02,0006.91,0006.36
2023-01-05 09:56:00,,0826.3,4.99,0.00,22.6,21.1,00.0,31.4,24.3,07.9,-000.9,0011.01,0006.98,0006.45
2023-01-05 09:57:00,,0825.9,5.01,0.00,22.6,21.0,00.0,31.4,24.2,07.9,-000.4,0010.93,0006.98,0006.47
2023-01-05 09:58:00,,0825.8,5.01,0.00,22.5,20.8,00.0,31.4,24.1,08.0,-000.6,0010.83,0007.01,0006.55
2023-01-05 09:59:00,,0825.8,5.00,0.00,22.5,20.8,00.0,31.4,24.1,08.0,0000.1,0010.87,0007.11,0006.66
